Regional Weather Roundup
Issued by NWS

Home | Current Version | Previous Version | Text Only | Print | Product List | Glossary Off
Versions: 1 2 3 4 5 6 7 8 9 10 11 12 13 14 15 16 17 18 19 20 21 22 23 24 25 26 27 28 29 30 31 32 33 34 35 36 37 38 39 40 41 42 43 44 45 46 47 48 49 50

000
ASUS43 KOAX 272102
RWRNE

WEATHER ROUNDUP FOR NEBRASKA
NATIONAL WEATHER SERVICE OMAHA NE
400 PM CDT TUE JUN 27 2017

NOTES: SATELLITE DATA IS BEING USED TO AUGMENT CLOUD COVER ABOVE
       12000 FEET.
       "FAIR" INDICATES FEW OR NO CLOUDS BELOW 12,000 FEET WITH NO
       SIGNIFICANT WEATHER AND/OR OBSTRUCTIONS TO VISIBILITY.

  * THESE STATIONS DO NOT REPORT WEATHER SUCH AS RAIN...SNOW OR FOG.

NEZ001>004-019>022-054>056-272200-
NEBRASKA PANHANDLE

CITY           SKY/WX    TMP DP  RH WIND       PRES   REMARKS
SCOTTSBLUFF    TSTM      83  62  49 SE10      29.73R
ALLIANCE       SUNNY     90  53  28 SE14      29.70F
CHADRON        SUNNY     94  46  19 W10       29.64F HX  90
GORDON         FAIR      85  57  38 S15       29.66F
KIMBALL        CLOUDY    88  45  22 S6        29.79F
SIDNEY         CLOUDY    91  52  26 SE10      29.76F
$$

NEZ057>060-069>072-079>082-272200-
SOUTHWEST NEBRASKA

CITY           SKY/WX    TMP DP  RH WIND       PRES   REMARKS
NORTH PLATTE   SUNNY     79  63  57 S12G26    29.77F
IMPERIAL       SUNNY     94  57  28 SE20G26   29.74F HX  92
LEXINGTON      SUNNY     85  65  50 S22G28    29.78F
MCCOOK         SUNNY     94  61  33 S18G29    29.74F HX  94
OGALLALA       SUNNY     91  57  32 SE15G29   29.74F
$$

NEZ005>010-023>029-035>040-094-272200-
NORTH CENTRAL NEBRASKA

CITY           SKY/WX    TMP DP  RH WIND       PRES   REMARKS
VALENTINE      CLOUDY    89  57  33 S23G36    29.70R
AINSWORTH      SUNNY     85  62  46 S28G35    29.71F
BROKEN BOW     SUNNY     82  64  54 S28G33    29.78F
O`NEILL        SUNNY     84  62  47 S28G36    29.77F
ORD            MOSUNNY   81  62  52 S21G32    29.78F
THEDFORD       MOSUNNY   84  61  45 S23G31    29.76S
$$

NEZ041-046>049-061>064-073>077-083>087-272200-
SOUTH CENTRAL NEBRASKA

CITY           SKY/WX    TMP DP  RH WIND       PRES   REMARKS
GRAND ISLAND   PTSUNNY   80  66  62 SE21G29   29.84F
AURORA         CLOUDY    83  64  53 S20G26    29.85F
HASTINGS       MOSUNNY   83  65  54 SE22G29   29.85F
HEBRON         PTSUNNY   83  67  59 S17G25    29.87F
HOLDREGE       SUNNY     86  64  47 SE21G28   29.79F
KEARNEY *      SUNNY     84  64  51 S23G30    29.81F
YORK           CLOUDY    81  66  61 S18G25    29.85F
$$

NEZ011>018-030>034-042>045-272200-
NORTHEAST NEBRASKA

CITY           SKY/WX    TMP DP  RH WIND       PRES   REMARKS
NORFOLK        SUNNY     81  61  50 S24G37    29.82F
ALBION         MOSUNNY   83  62  49 S22G28    29.82F
BLAIR          SUNNY     80  61  52 S17G26    29.90F
FREMONT        SUNNY     80  62  54 SE17G25   29.88F
TEKAMAH        SUNNY     82  58  43 SE23G29   29.88F
WAYNE          SUNNY     81  61  49 SE25G32   29.84F
$$

NEZ050>053-065>068-078-088>093-272200-
SOUTHEAST NEBRASKA

CITY           SKY/WX    TMP DP  RH WIND       PRES   REMARKS
LINCOLN        MOSUNNY   83  65  54 SE21G29   29.88F
OMAHA EPPLEY   PTSUNNY   82  61  48 S23       29.90F
BEATRICE       MOSUNNY   81  67  63 SE17G26   29.89F
FALLS CITY     PTSUNNY   77  64  64 SE15      29.93F
NEBRASKA CITY  PTSUNNY   78  66  66 SE17      29.93F
PLATTSMOUTH    MOSUNNY   78  62  56 SE15G23   29.91F
$$

NEZ044-045-051>053-067-272200-
OMAHA AREA

CITY           SKY/WX    TMP DP  RH WIND       PRES   REMARKS
OMAHA EPPLEY   PTSUNNY   82  61  48 S23       29.90F
BLAIR          SUNNY     80  61  52 S17G26    29.90F
FREMONT        SUNNY     80  62  54 SE17G25   29.88F
MILLARD        SUNNY     81  66  58 S16       29.90F
OFFUTT AFB     SUNNY     80  62  54 SE16G25   29.90F
PLATTSMOUTH    MOSUNNY   78  62  56 SE15G23   29.91F
WAHOO          CLOUDY    81  60  48 S20G30    29.88F
$$




USA.gov is the U.S. government's official web portal to all federal, state and local government web resources and services.